KE5AKC Weather Reports


time (UTC)temp
C
wind
direction
speed
KPH
gust
KPH
rain 1hr
cm
rain 24hr
cm
rain mn
cm
humidity
%
barometer
mb
20260502200226 23 1 3.2 4.8 0.00 0.00 0.00 41 1018.8
20260502195725 23 27 6.4 8.0 0.00 0.00 0.00 40 1018.5
20260502195221 23 4 6.4 9.7 0.00 0.00 0.00 39 1019.1
20260502194717 23 46 1.6 3.2 0.00 0.00 0.00 42 1018.8
20260502194215 23 16 8.0 9.7 0.00 0.00 0.00 39 1019.1
20260502193710 23 329 4.8 8.0 0.00 0.00 0.00 41 1019.1
20260502193208 23 42 4.8 8.0 0.00 0.00 0.00 41 1019.5
20260502192703 22 1 6.4 8.0 0.00 0.00 0.00 40 1019.5
20260502192201 22 8 11.3 12.9 0.00 0.00 0.00 42 1019.5
20260502191658 22 95 6.4 9.7 0.00 0.00 0.00 42 1019.5
20260502191155 22 311 9.7 11.3 0.00 0.00 0.00 41 1019.5
20260502190652 22 3 9.7 11.3 0.00 0.00 0.00 40 1019.5
20260502190150 22 10 12.9 16.1 0.00 0.00 0.00 42 1019.5
20260502185644 22 21 8.0 12.9 0.00 0.00 0.00 42 1019.8
20260502185141 22 2 6.4 9.7 0.00 0.00 0.00 46 1019.5
20260502184638 22 52 8.0 9.7 0.00 0.00 0.00 45 1019.5
20260502184133 22 36 9.7 11.3 0.00 0.00 0.00 44 1019.8
20260502183630 22 335 14.5 20.9 0.00 0.00 0.00 43 1019.8
20260502183126 22 341 3.2 3.2 0.00 0.00 0.00 43 1020.2
20260502182621 21 322 9.7 11.3 0.00 0.00 0.00 47 1020.2
20260502182117 21 26 8.0 9.7 0.00 0.00 0.00 44 1020.2
20260502181615 21 27 8.0 12.9 0.00 0.00 0.00 46 1020.2
20260502181114 21 3 16.1 17.7 0.00 0.00 0.00 44 1020.2
20260502180610 22 83 3.2 8.0 0.00 0.00 0.00 45 1020.2
20260502180108 21 85 1.6 3.2 0.00 0.00 0.00 45 1020.2
20260502164008 20 8 8.0 9.7 0.00 0.00 0.00 52 1020.8
20260502163503 20 64 8.0 11.3 0.00 0.00 0.00 53 1020.5
20260502163001 20 25 4.8 9.7 0.00 0.00 0.00 53 1020.5
20260502162457 20 111 6.4 9.7 0.00 0.00 0.00 55 1020.5
20260502161948 20 15 11.3 11.3 0.00 0.00 0.00 56 1020.5
20260502161445 19 24 4.8 4.8 0.00 0.00 0.00 59 1020.8
20260502160943 19 10 14.5 17.7 0.00 0.00 0.00 55 1020.5
20260502160440 19 15 11.3 12.9 0.00 0.00 0.00 57 1020.5
20260502151918 18 358 6.4 8.0 0.00 0.00 0.00 68 1020.8
20260502151414 18 41 1.6 4.8 0.00 0.00 0.00 70 1020.5
20260502150912 17 48 6.4 11.3 0.00 0.00 0.00 70 1020.5
20260502150408 17 10 6.4 8.0 0.00 0.00 0.00 71 1020.5
20260502130255 13 346 6.4 8.0 0.00 0.00 0.00 90 1019.1
20260502123740 12 11 1.6 1.6 0.00 0.00 0.00 95 1018.8
20260502123237 11 29 4.8 8.0 0.00 0.00 0.00 95 1018.8
20260502122734 11 17 1.6 3.2 0.00 0.00 0.00 95 1018.5
20260502122230 11 11 4.8 9.7 0.00 0.00 0.00 96 1018.5
20260502121728 11 0 1.6 3.2 0.00 0.00 0.00 96 1018.5
20260502121226 11 4 3.2 3.2 0.00 0.00 0.00 96 1018.5
20260502120722 11 315 3.2 4.8 0.00 0.00 0.00 96 1018.5
20260502120219 11 350 3.2 3.2 0.00 0.00 0.00 96 1018.1
20260502115717 11 9 1.6 3.2 0.00 0.00 0.00 96 1018.1
20260502115213 11 6 1.6 3.2 0.00 0.00 0.00 96 1018.1
20260502114709 11 8 4.8 4.8 0.00 0.00 0.00 96 1018.1
20260502114207 11 350 3.2 3.2 0.00 0.00 0.00 96 1018.5
20260502113703 11 5 1.6 1.6 0.00 0.00 0.00 95 1018.1
20260502113201 11 13 3.2 3.2 0.00 0.00 0.00 95 1018.1
20260502112659 11 15 0.0 1.6 0.00 0.00 0.00 95 1017.8
20260502112156 11 22 0.0 0.0 0.00 0.00 0.00 95 1018.1
20260502111654 11 26 6.4 8.0 0.00 0.00 0.00 95 1017.8
20260502111151 11 6 1.6 3.2 0.00 0.00 0.00 95 1017.8
20260502110649 11 348 4.8 8.0 0.00 0.00 0.00 95 1017.8
20260502110146 11 289 4.8 4.8 0.00 0.00 0.00 95 1017.8
20260502105643 11 1 3.2 3.2 0.00 0.00 0.00 95 1017.4
20260502105140 11 5 6.4 9.7 0.00 0.00 0.00 95 1017.4
20260502104637 11 5 4.8 8.0 0.00 0.00 0.00 95 1017.4
20260502104135 11 332 1.6 3.2 0.00 0.00 0.00 95 1017.8
20260502103632 11 33 3.2 4.8 0.00 0.00 0.00 95 1017.4
20260502103130 11 9 3.2 4.8 0.00 0.00 0.00 95 1017.4
20260502102627 11 4 1.6 1.6 0.00 0.00 0.00 95 1017.4
20260502102123 11 350 3.2 3.2 0.00 0.00 0.00 95 1017.1
20260502101621 11 301 3.2 3.2 0.00 0.00 0.00 95 1017.1
20260502101120 11 356 3.2 3.2 0.00 0.00 0.00 95 1017.1
20260502100618 11 25 1.6 3.2 0.00 0.00 0.00 95 1017.1
20260502100116 11 15 4.8 4.8 0.00 0.00 0.00 94 1016.8
20260502091044 11 351 1.6 1.6 0.00 0.00 0.00 94 1016.1
20260502090541 11 14 3.2 4.8 0.00 0.00 0.00 94 1015.7
20260502071430 12 4 1.6 1.6 0.00 0.00 0.00 89 1016.1
20260502070928 12 32 4.8 4.8 0.00 0.00 0.00 89 1016.1
20260502070426 12 346 3.2 3.2 0.00 0.00 0.00 89 1016.1
20260502065924 12 63 3.2 8.0 0.00 0.00 0.00 90 1015.7
20260502065422 12 44 3.2 3.2 0.00 0.00 0.00 90 1015.7
20260502064920 12 27 1.6 1.6 0.00 0.00 0.00 91 1015.7
20260502064417 12 75 3.2 3.2 0.00 0.00 0.00 91 1015.7
20260502063914 12 53 8.0 11.3 0.00 0.00 0.00 92 1015.7
20260502063412 12 22 8.0 12.9 0.00 0.00 0.00 92 1015.7
20260502062909 12 7 6.4 8.0 0.00 0.00 0.00 93 1015.7
20260502062406 12 34 4.8 4.8 0.00 0.00 0.00 93 1015.7
20260502061905 12 31 6.4 12.9 0.00 0.00 0.00 93 1015.7
20260502061403 12 354 4.8 8.0 0.00 0.00 0.00 93 1015.7
20260502060858 12 12 4.8 11.3 0.00 0.00 0.00 93 1015.4
20260502060353 12 29 8.0 11.3 0.00 0.00 0.00 93 1015.4
20260502055851 12 2 8.0 9.7 0.00 0.00 0.00 93 1015.7
20260502055349 12 338 1.6 4.8 0.00 0.00 0.00 93 1015.7
20260502054849 12 70 9.7 12.9 0.00 0.00 0.00 93 1015.4
20260502054345 12 52 3.2 4.8 0.00 0.00 0.00 93 1015.7
20260502053843 12 33 6.4 11.3 0.00 0.00 0.00 93 1016.1
20260502053340 12 27 3.2 4.8 0.00 0.00 0.00 93 1015.7
20260502052838 12 22 6.4 8.0 0.00 0.00 0.00 93 1016.1
20260502052335 12 16 11.3 12.9 0.00 0.00 0.00 93 1015.7
20260502051833 12 84 4.8 8.0 0.00 0.00 0.00 93 1015.7
20260502051332 12 22 6.4 9.7 0.00 0.00 0.00 94 1016.1
20260502050827 12 354 8.0 11.3 0.00 0.00 0.00 94 1015.7
20260502050324 12 313 8.0 9.7 0.00 0.00 0.00 94 1015.7
20260502045821 12 48 9.7 12.9 0.00 9.14 9.14 94 1015.7
20260502045318 13 39 14.5 22.5 0.00 9.14 9.14 94 1016.1
20260502044815 12 23 1.6 3.2 0.00 9.14 9.14 95 1015.7
20260502044311 13 21 9.7 14.5 0.00 9.14 9.14 95 1015.7
20260502043808 13 344 4.8 8.0 0.00 9.14 9.14 95 1015.7
20260502043306 13 4 6.4 8.0 0.00 9.14 9.14 95 1015.7
20260502042805 13 1 8.0 11.3 0.00 9.14 9.14 95 1015.7
20260502042306 13 20 11.3 12.9 0.00 9.14 9.14 95 1016.1
20260502041800 13 22 3.2 4.8 0.00 9.14 9.14 95 1016.1
20260502041258 13 13 6.4 8.0 0.00 9.14 9.14 95 1015.7
20260502040754 13 355 8.0 11.3 0.00 9.14 9.14 95 1015.7
20260502040251 13 343 9.7 11.3 0.00 9.14 9.14 95 1015.4
20260502035747 13 33 9.7 12.9 0.00 9.14 9.14 95 1015.4
20260502035244 13 2 4.8 4.8 0.00 9.14 9.14 95 1015.4
20260502034741 13 357 6.4 11.3 0.00 9.14 9.14 95 1015.4
20260502034240 13 54 8.0 11.3 0.00 9.14 9.14 95 1015.1
20260502033737 13 355 4.8 9.7 0.00 9.14 9.14 95 1015.1
20260502033235 13 308 11.3 12.9 0.00 9.14 9.14 95 1015.1
20260502032731 13 15 6.4 8.0 0.00 9.14 9.14 95 1014.7
20260502032227 13 350 8.0 11.3 0.00 9.14 9.14 95 1015.1
20260502031726 13 2 8.0 12.9 0.00 9.14 9.14 96 1014.7
20260502031223 13 66 9.7 12.9 0.00 9.14 9.14 96 1014.4
20260502030722 13 31 4.8 4.8 0.00 9.14 9.14 96 1014.4
20260502030220 13 39 6.4 8.0 0.00 9.14 9.14 96 1014.1
20260502025716 13 6 6.4 11.3 0.05 9.14 9.14 96 1014.1
20260502025214 13 17 3.2 3.2 0.05 9.14 9.14 96 1014.4
20260502024712 13 8 4.8 8.0 0.05 9.14 9.14 96 1014.4
20260502024210 13 0 8.0 9.7 0.05 9.14 9.14 96 1014.4
20260502023708 13 37 4.8 4.8 0.05 9.14 9.14 96 1014.4
20260502023204 13 5 8.0 12.9 0.05 9.14 9.14 96 1014.4
20260502022702 13 3 11.3 16.1 0.03 9.12 9.12 96 1014.4
20260502022158 13 40 4.8 4.8 0.03 9.12 9.12 96 1014.4
20260502021655 13 345 8.0 12.9 0.03 9.12 9.12 96 1014.4
20260502021153 13 9 11.3 14.5 0.03 9.12 9.12 96 1013.7
20260502020650 13 56 6.4 9.7 0.03 9.12 9.12 96 1014.1
20260502020147 13 2 8.0 9.7 0.00 9.09 9.09 96 1013.7
20260502015645 13 29 11.3 12.9 0.23 9.09 9.09 96 1013.7
20260502015140 13 28 6.4 8.0 0.23 9.09 9.09 96 1013.4
20260502014639 13 342 6.4 8.0 0.20 9.07 9.07 96 1013.4
20260502014135 13 333 11.3 14.5 0.18 9.04 9.04 96 1013.0
20260502013631 13 49 6.4 9.7 0.15 9.02 9.02 96 1013.4
20260502013127 13 6 9.7 12.9 0.13 8.99 8.99 96 1013.4
20260502012624 13 7 9.7 11.3 0.10 8.97 8.97 96 1013.7
20260502012122 13 1 9.7 11.3 0.10 8.97 8.97 96 1013.7
20260502011619 13 22 11.3 14.5 0.10 8.97 8.97 96 1013.4
20260502011114 13 16 4.8 9.7 0.08 8.94 8.94 96 1012.7
20260502010613 13 32 9.7 11.3 0.05 8.92 8.92 96 1012.4
20260502010109 14 22 8.0 11.3 0.00 8.86 8.86 96 1012.4
20260502005606 14 54 4.8 8.0 0.33 8.79 8.79 96 1011.7
20260502005104 14 7 6.4 8.0 0.25 8.71 8.71 96 1012.0
20260502004559 14 355 3.2 3.2 0.20 8.66 8.66 96 1012.0
20260502004056 14 18 14.5 16.1 0.15 8.61 8.61 96 1011.7
20260502003555 14 346 6.4 11.3 0.13 8.59 8.59 96 1011.7
20260502003051 14 29 9.7 14.5 0.13 8.59 8.59 96 1011.7
20260502002547 14 349 6.4 8.0 0.10 8.56 8.56 96 1012.4
20260502002045 14 19 4.8 8.0 0.08 8.53 8.53 96 1011.7
20260502001543 15 351 1.6 3.2 0.05 8.51 8.51 96 1012.4
20260502001039 15 9 6.4 9.7 0.03 8.48 8.48 96 1012.4
20260502000537 15 33 4.8 8.0 0.00 8.46 8.46 96 1011.7
20260502000034 15 14 8.0 12.9 0.56 8.46 8.46 96 1010.0
20260501235530 15 29 9.7 11.3 0.53 8.43 8.43 96 1010.7
20260501235026 15 67 6.4 8.0 0.53 8.43 8.43 96 1011.0
20260501234521 15 3 1.6 3.2 0.48 8.38 8.38 96 1011.7
20260501234020 15 55 4.8 14.5 0.41 8.31 8.31 95 1011.7
20260501233518 15 61 1.6 3.2 0.36 8.26 8.26 95 1011.7
20260501233015 15 2 6.4 9.7 0.28 8.18 8.18 95 1012.4
20260501232511 15 348 1.6 1.6 0.08 7.98 7.98 95 1012.4
20260501232008 15 359 4.8 8.0 0.00 7.90 7.90 95 1012.4
20260501231506 15 334 4.8 4.8 0.00 7.90 7.90 96 1011.7
20260501231004 15 107 1.6 1.6 0.00 7.90 7.90 96 1010.7
20260501230503 15 62 12.9 16.1 0.00 7.90 7.90 96 1010.0
20260501230000 15 23 4.8 4.8 0.08 7.90 7.90 96 1010.3
20260501225458 15 249 1.6 3.2 0.08 7.90 7.90 96 1010.7
20260501224953 15 38 3.2 8.0 0.08 7.90 7.90 96 1011.3
20260501224451 15 353 4.8 8.0 0.08 7.90 7.90 96 1011.3
20260501223948 15 80 6.4 9.7 0.08 7.90 7.90 96 1011.0
20260501223444 15 67 4.8 8.0 0.08 7.90 7.90 96 1011.0
20260501222939 15 23 1.6 3.2 0.05 7.87 7.87 96 1011.0
20260501222437 15 31 9.7 11.3 0.05 7.87 7.87 96 1011.0
20260501221933 15 11 11.3 12.9 0.05 7.87 7.87 96 1011.3
20260501221431 15 339 3.2 3.2 0.05 7.87 7.87 96 1011.3
20260501220928 15 334 4.8 4.8 0.05 7.87 7.87 96 1011.7
20260501220426 15 344 11.3 16.1 0.03 7.85 7.85 97 1011.3
20260501215921 15 47 11.3 12.9 0.51 7.82 7.82 96 1011.3
20260501215418 15 67 8.0 9.7 0.46 7.77 7.77 96 1011.7
20260501214914 15 10 3.2 3.2 0.41 7.72 7.72 97 1011.7
20260501214409 15 56 4.8 4.8 0.36 7.67 7.67 96 1011.7
20260501213905 15 5 3.2 3.2 0.28 7.59 7.59 97 1011.3
20260501213402 15 335 4.8 4.8 0.25 7.57 7.57 97 1011.0
20260501212857 15 354 11.3 14.5 0.23 7.54 7.54 97 1010.7
20260501212355 15 115 4.8 8.0 0.20 7.52 7.52 96 1010.7
20260501211851 15 341 3.2 3.2 0.15 7.47 7.47 97 1010.3
20260501211349 15 359 8.0 9.7 0.10 7.42 7.42 97 1010.0
20260501210846 15 40 1.6 3.2 0.05 7.37 7.37 97 1009.3
20260501210343 16 339 11.3 17.7 0.00 7.32 7.32 96 1010.0
20260501205839 16 13 4.8 8.0 0.38 7.32 7.32 97 1010.7
20260501205336 16 4 4.8 4.8 0.33 7.26 7.26 97 1010.7
20260501204833 16 37 4.8 4.8 0.25 7.19 7.19 97 1010.7
20260501204329 16 356 0.0 0.0 0.20 7.14 7.14 97 1011.0
20260501203826 16 333 14.5 20.9 0.18 7.11 7.11 97 1010.7
20260501203324 16 47 14.5 14.5 0.15 7.09 7.09 97 1010.0
20260501202820 16 32 8.0 9.7 0.13 7.06 7.06 97 1010.0
20260501202317 16 41 6.4 8.0 0.10 7.04 7.04 97 1010.0
20260501201814 16 13 4.8 4.8 0.08 7.01 7.01 97 1010.0
20260501201310 16 19 1.6 4.8 0.08 7.01 7.01 97 1010.0
20260501200807 16 350 1.6 3.2 0.05 6.99 6.99 97 1010.0